| time (UTC) | temp F | wind direction | speed MPH | gust MPH | rain 1hr in | rain 24hr in | rain mn in | humidity % | barometer mb |
| 20260905120529 | 78 | 90 | 4.0 | 6.0 | 0.00 | 0.00 | 0.00 | 97 | 1012.9 |
| 20260905115523 | 77 | 91 | 4.0 | 5.0 | 0.00 | 0.00 | 0.00 | 97 | 1012.9 |
| 20260905114519 | 77 | 98 | 4.0 | 5.0 | 0.00 | 0.00 | 0.00 | 97 | 1012.8 |
| 20260905113534 | 77 | 93 | 4.0 | 6.0 | 0.00 | 0.00 | 0.00 | 97 | 1012.6 |
| 20260905112529 | 77 | 98 | 5.0 | 6.0 | 0.00 | 0.00 | 0.00 | 97 | 1012.7 |
| 20260905111524 | 77 | 95 | 4.0 | 6.0 | 0.00 | 0.00 | 0.00 | 97 | 1012.5 |
| 20260905110519 | 77 | 101 | 5.0 | 6.0 | 0.00 | 0.00 | 0.00 | 97 | 1012.5 |
| 20260905105535 | 77 | 92 | 5.0 | 6.0 | 0.00 | 0.00 | 0.00 | 97 | 1012.6 |
| 20260905104530 | 77 | 96 | 4.0 | 6.0 | 0.00 | 0.00 | 0.00 | 97 | 1012.4 |
| 20260905103525 | 77 | 107 | 5.0 | 8.0 | 0.00 | 0.00 | 0.00 | 97 | 1012.3 |
| 20260905102521 | 77 | 99 | 5.0 | 7.0 | 0.00 | 0.00 | 0.00 | 97 | 1012.2 |
| 20260905101535 | 77 | 94 | 4.0 | 6.0 | 0.00 | 0.00 | 0.00 | 97 | 1012.3 |
| 20260905100531 | 77 | 99 | 4.0 | 7.0 | 0.00 | 0.00 | 0.00 | 97 | 1012.2 |
| 20260905095526 | 77 | 102 | 5.0 | 6.0 | 0.00 | 0.00 | 0.00 | 97 | 1012.3 |
| 20260905094521 | 77 | 103 | 5.0 | 9.0 | 0.00 | 0.00 | 0.00 | 97 | 1012.2 |
| 20260905093516 | 77 | 100 | 5.0 | 8.0 | 0.00 | 0.00 | 0.00 | 97 | 1012.2 |
| 20260905092532 | 76 | 91 | 5.0 | 9.0 | 0.00 | 0.00 | 0.00 | 96 | 1012.4 |
| 20260905091527 | 76 | 116 | 6.0 | 9.0 | 0.00 | 0.00 | 0.00 | 96 | 1012.4 |
| 20260905090522 | 76 | 111 | 6.0 | 10.0 | 0.00 | 0.00 | 0.00 | 96 | 1012.5 |
| 20260905085517 | 76 | 89 | 6.0 | 8.0 | 0.00 | 0.00 | 0.00 | 96 | 1012.5 |
| 20260905084533 | 76 | 83 | 6.0 | 9.0 | 0.00 | 0.00 | 0.00 | 96 | 1012.5 |
| 20260905083528 | 76 | 123 | 6.0 | 10.0 | 0.00 | 0.00 | 0.00 | 96 | 1012.5 |
| 20260905082523 | 76 | 91 | 4.0 | 6.0 | 0.00 | 0.00 | 0.00 | 96 | 1012.7 |
| 20260905081519 | 77 | 100 | 5.0 | 7.0 | 0.00 | 0.00 | 0.00 | 96 | 1012.8 |
| 20260905080534 | 77 | 67 | 7.0 | 9.0 | 0.00 | 0.00 | 0.00 | 95 | 1012.8 |
| 20260905075529 | 77 | 99 | 6.0 | 10.0 | 0.00 | 0.00 | 0.00 | 95 | 1012.7 |
| 20260905074524 | 77 | 96 | 5.0 | 9.0 | 0.00 | 0.00 | 0.00 | 95 | 1012.6 |
| 20260905073519 | 77 | 101 | 5.0 | 5.0 | 0.00 | 0.00 | 0.00 | 95 | 1012.6 |
| 20260905072535 | 77 | 91 | 4.0 | 5.0 | 0.00 | 0.00 | 0.00 | 95 | 1012.6 |
| 20260905071530 | 77 | 94 | 4.0 | 4.0 | 0.00 | 0.00 | 0.00 | 95 | 1012.6 |
| 20260905070525 | 77 | 95 | 4.0 | 5.0 | 0.00 | 0.00 | 0.00 | 95 | 1012.6 |
| 20260905065520 | 77 | 91 | 4.0 | 5.0 | 0.00 | 0.00 | 0.00 | 95 | 1012.5 |
| 20260905064536 | 77 | 105 | 4.0 | 5.0 | 0.00 | 0.00 | 0.00 | 95 | 1012.6 |
| 20260905063531 | 78 | 100 | 4.0 | 5.0 | 0.00 | 0.00 | 0.00 | 95 | 1012.7 |
| 20260905062526 | 78 | 95 | 4.0 | 5.0 | 0.00 | 0.00 | 0.00 | 95 | 1012.8 |
| 20260905061521 | 78 | 98 | 4.0 | 5.0 | 0.00 | 0.00 | 0.00 | 95 | 1012.9 |
| 20260905060516 | 78 | 97 | 4.0 | 5.0 | 0.00 | 0.00 | 0.00 | 94 | 1013.1 |
| 20260905055532 | 78 | 84 | 5.0 | 5.0 | 0.00 | 0.00 | 0.00 | 94 | 1013.4 |
| 20260905054527 | 78 | 94 | 4.0 | 5.0 | 0.00 | 0.00 | 0.00 | 94 | 1013.5 |
| 20260905053522 | 78 | 93 | 4.0 | 5.0 | 0.00 | 0.00 | 0.00 | 94 | 1013.4 |
| 20260905052517 | 78 | 106 | 5.0 | 5.0 | 0.00 | 0.00 | 0.00 | 94 | 1013.5 |
| 20260905051532 | 79 | 93 | 4.0 | 5.0 | 0.00 | 0.00 | 0.00 | 93 | 1013.8 |
| 20260905050527 | 79 | 96 | 4.0 | 5.0 | 0.00 | 0.00 | 0.00 | 93 | 1013.9 |
| 20260905045523 | 79 | 97 | 4.0 | 5.0 | 0.00 | 0.00 | 0.00 | 92 | 1014.1 |
| 20260905044518 | 79 | 94 | 4.0 | 5.0 | 0.00 | 0.00 | 0.00 | 92 | 1014.5 |
| 20260905043533 | 80 | 95 | 4.0 | 4.0 | 0.00 | 0.00 | 0.00 | 92 | 1014.5 |
| 20260905042528 | 80 | 97 | 4.0 | 5.0 | 0.00 | 0.00 | 0.00 | 91 | 1014.6 |
| 20260905041523 | 80 | 89 | 5.0 | 5.0 | 0.00 | 0.00 | 0.00 | 91 | 1014.6 |
| 20260905040519 | 80 | 93 | 4.0 | 5.0 | 0.00 | 0.00 | 0.00 | 90 | 1014.6 |
| 20260905035534 | 81 | 97 | 4.0 | 7.0 | 0.00 | 0.00 | 0.00 | 90 | 1014.5 |
| 20260905034529 | 81 | 100 | 5.0 | 6.0 | 0.00 | 0.00 | 0.00 | 90 | 1014.3 |
| 20260905033524 | 81 | 101 | 5.0 | 5.0 | 0.00 | 0.00 | 0.00 | 90 | 1014.2 |
| 20260905032520 | 81 | 106 | 5.0 | 10.0 | 0.00 | 0.00 | 0.00 | 90 | 1014.3 |
| 20260905031535 | 80 | 103 | 5.0 | 6.0 | 0.00 | 0.00 | 0.00 | 90 | 1014.3 |
| 20260905030530 | 80 | 101 | 4.0 | 5.0 | 0.00 | 0.00 | 0.00 | 89 | 1014.5 |
| 20260905025525 | 80 | 101 | 4.0 | 5.0 | 0.00 | 0.00 | 0.00 | 89 | 1014.5 |
| 20260905024520 | 81 | 100 | 4.0 | 5.0 | 0.00 | 0.00 | 0.00 | 89 | 1014.7 |
| 20260905023535 | 81 | 97 | 4.0 | 5.0 | 0.00 | 0.00 | 0.00 | 88 | 1014.8 |
| 20260905022530 | 81 | 100 | 4.0 | 5.0 | 0.00 | 0.00 | 0.00 | 88 | 1014.8 |
| 20260905021525 | 82 | 102 | 4.0 | 5.0 | 0.00 | 0.00 | 0.00 | 87 | 1015.0 |
| 20260905020520 | 82 | 106 | 5.0 | 7.0 | 0.00 | 0.00 | 0.00 | 86 | 1015.0 |
| 20260905015535 | 82 | 100 | 4.0 | 5.0 | 0.00 | 0.00 | 0.00 | 85 | 1015.0 |
| 20260905014530 | 82 | 114 | 5.0 | 10.0 | 0.00 | 0.00 | 0.00 | 85 | 1014.7 |
| 20260905013525 | 82 | 106 | 5.0 | 7.0 | 0.00 | 0.00 | 0.00 | 85 | 1014.4 |
| 20260905012520 | 82 | 107 | 5.0 | 7.0 | 0.00 | 0.00 | 0.00 | 85 | 1014.3 |
| 20260905011535 | 82 | 116 | 5.0 | 8.0 | 0.00 | 0.00 | 0.00 | 84 | 1014.2 |
| 20260905010531 | 82 | 113 | 5.0 | 10.0 | 0.00 | 0.00 | 0.00 | 85 | 1014.4 |
| 20260905005525 | 83 | 111 | 5.0 | 7.0 | 0.00 | 0.00 | 0.00 | 84 | 1014.2 |
| 20260905004520 | 83 | 123 | 6.0 | 10.0 | 0.00 | 0.00 | 0.00 | 84 | 1014.3 |
| 20260905003536 | 83 | 112 | 5.0 | 8.0 | 0.00 | 0.00 | 0.00 | 85 | 1014.3 |
| 20260905002531 | 82 | 120 | 5.0 | 10.0 | 0.00 | 0.00 | 0.00 | 85 | 1014.3 |
| 20260905001526 | 82 | 107 | 5.0 | 6.0 | 0.00 | 0.00 | 0.00 | 83 | 1014.3 |
| 20260905000521 | 83 | 109 | 5.0 | 7.0 | 0.00 | 0.00 | 0.00 | 84 | 1014.3 |
| 20260904235516 | 83 | 115 | 5.0 | 8.0 | 0.00 | 0.00 | 0.00 | 84 | 1013.9 |
| 20260904234532 | 83 | 117 | 5.0 | 10.0 | 0.00 | 0.00 | 0.00 | 83 | 1014.0 |
| 20260904233526 | 83 | 118 | 5.0 | 8.0 | 0.00 | 0.00 | 0.00 | 83 | 1013.9 |
| 20260904232521 | 83 | 115 | 5.0 | 9.0 | 0.00 | 0.00 | 0.00 | 83 | 1014.0 |
| 20260904231516 | 83 | 112 | 5.0 | 7.0 | 0.00 | 0.00 | 0.00 | 82 | 1013.7 |
| 20260904230531 | 84 | 117 | 5.0 | 10.0 | 0.00 | 0.00 | 0.00 | 81 | 1013.8 |
| 20260904225526 | 84 | 122 | 5.0 | 10.0 | 0.00 | 0.00 | 0.00 | 80 | 1014.0 |
| 20260904224521 | 84 | 111 | 5.0 | 11.0 | 0.00 | 0.00 | 0.00 | 80 | 1014.0 |
| 20260904223516 | 84 | 121 | 5.0 | 9.0 | 0.00 | 0.00 | 0.00 | 79 | 1013.8 |
| 20260904222532 | 85 | 119 | 5.0 | 12.0 | 0.00 | 0.00 | 0.00 | 79 | 1013.8 |
| 20260904221527 | 85 | 131 | 6.0 | 9.0 | 0.00 | 0.00 | 0.00 | 79 | 1013.8 |
| 20260904220522 | 85 | 124 | 5.0 | 9.0 | 0.00 | 0.00 | 0.00 | 79 | 1013.7 |
| 20260904215517 | 85 | 127 | 5.0 | 8.0 | 0.00 | 0.00 | 0.00 | 80 | 1013.7 |
| 20260904214533 | 85 | 124 | 6.0 | 10.0 | 0.00 | 0.00 | 0.00 | 80 | 1013.6 |
| 20260904213528 | 85 | 127 | 6.0 | 10.0 | 0.00 | 0.00 | 0.00 | 79 | 1013.7 |
| 20260904212523 | 85 | 135 | 5.0 | 11.0 | 0.00 | 0.00 | 0.00 | 79 | 1013.6 |
| 20260904211518 | 86 | 130 | 5.0 | 10.0 | 0.00 | 0.00 | 0.00 | 80 | 1013.8 |
| 20260904210534 | 86 | 126 | 5.0 | 12.0 | 0.00 | 0.00 | 0.00 | 79 | 1013.9 |
| 20260904205529 | 87 | 130 | 5.0 | 9.0 | 0.00 | 0.00 | 0.00 | 78 | 1014.0 |
| 20260904204524 | 87 | 131 | 5.0 | 9.0 | 0.00 | 0.00 | 0.00 | 76 | 1014.3 |
| 20260904203519 | 88 | 118 | 4.0 | 7.0 | 0.00 | 0.00 | 0.00 | 75 | 1014.6 |
| 20260904202534 | 87 | 128 | 5.0 | 7.0 | 0.00 | 0.00 | 0.00 | 75 | 1014.5 |
| 20260904201529 | 88 | 138 | 5.0 | 9.0 | 0.00 | 0.00 | 0.00 | 73 | 1014.7 |
| 20260904200525 | 88 | 136 | 5.0 | 10.0 | 0.00 | 0.00 | 0.00 | 74 | 1014.8 |
| 20260904195520 | 88 | 124 | 4.0 | 8.0 | 0.00 | 0.00 | 0.00 | 75 | 1015.0 |
| 20260904194535 | 88 | 122 | 5.0 | 11.0 | 0.00 | 0.00 | 0.00 | 74 | 1015.0 |
| 20260904193530 | 88 | 137 | 6.0 | 13.0 | 0.00 | 0.00 | 0.00 | 75 | 1015.2 |
| 20260904192525 | 89 | 134 | 6.0 | 10.0 | 0.00 | 0.00 | 0.00 | 72 | 1015.4 |
| 20260904191521 | 89 | 120 | 4.0 | 8.0 | 0.00 | 0.00 | 0.00 | 72 | 1015.4 |
| 20260904190536 | 89 | 113 | 4.0 | 6.0 | 0.00 | 0.00 | 0.00 | 72 | 1015.5 |
| 20260904185531 | 89 | 121 | 5.0 | 6.0 | 0.00 | 0.00 | 0.00 | 73 | 1015.4 |
| 20260904184526 | 89 | 130 | 6.0 | 12.0 | 0.00 | 0.00 | 0.00 | 72 | 1015.6 |
| 20260904183522 | 89 | 133 | 5.0 | 11.0 | 0.00 | 0.00 | 0.00 | 71 | 1015.8 |
| 20260904182517 | 89 | 134 | 4.0 | 8.0 | 0.00 | 0.00 | 0.00 | 71 | 1015.8 |
| 20260904181532 | 89 | 120 | 5.0 | 10.0 | 0.00 | 0.00 | 0.00 | 71 | 1015.8 |
| 20260904180527 | 90 | 127 | 4.0 | 9.0 | 0.00 | 0.00 | 0.00 | 70 | 1016.0 |
| 20260904175521 | 89 | 127 | 3.0 | 6.0 | 0.00 | 0.00 | 0.00 | 70 | 1016.1 |
| 20260904174516 | 89 | 132 | 5.0 | 10.0 | 0.00 | 0.00 | 0.00 | 70 | 1016.3 |
| 20260904173532 | 89 | 121 | 4.0 | 8.0 | 0.00 | 0.00 | 0.00 | 69 | 1016.3 |
| 20260904172526 | 89 | 124 | 5.0 | 9.0 | 0.00 | 0.00 | 0.00 | 69 | 1016.3 |
| 20260904171522 | 89 | 125 | 5.0 | 9.0 | 0.00 | 0.00 | 0.00 | 67 | 1016.5 |
| 20260904170536 | 89 | 123 | 4.0 | 6.0 | 0.00 | 0.00 | 0.00 | 68 | 1016.5 |
| 20260904165530 | 89 | 122 | 5.0 | 8.0 | 0.00 | 0.00 | 0.00 | 67 | 1016.5 |
| 20260904164525 | 89 | 126 | 5.0 | 8.0 | 0.00 | 0.00 | 0.00 | 67 | 1016.7 |
| 20260904163520 | 89 | 133 | 5.0 | 10.0 | 0.00 | 0.00 | 0.00 | 70 | 1016.8 |
| 20260904162536 | 89 | 116 | 4.0 | 7.0 | 0.00 | 0.00 | 0.00 | 69 | 1016.9 |
| 20260904161531 | 88 | 127 | 5.0 | 7.0 | 0.00 | 0.00 | 0.00 | 71 | 1016.9 |
| 20260904160526 | 89 | 117 | 4.0 | 6.0 | 0.00 | 0.00 | 0.00 | 70 | 1017.1 |
| 20260904155521 | 88 | 118 | 5.0 | 9.0 | 0.00 | 0.00 | 0.00 | 72 | 1017.1 |
| 20260904154516 | 89 | 120 | 5.0 | 7.0 | 0.00 | 0.00 | 0.00 | 72 | 1017.1 |
| 20260904153532 | 88 | 118 | 5.0 | 9.0 | 0.00 | 0.00 | 0.00 | 69 | 1017.1 |
| 20260904152527 | 88 | 111 | 4.0 | 6.0 | 0.00 | 0.00 | 0.00 | 73 | 1017.0 |
| 20260904151522 | 87 | 117 | 4.0 | 9.0 | 0.00 | 0.00 | 0.00 | 75 | 1017.1 |
| 20260904150518 | 88 | 117 | 5.0 | 8.0 | 0.00 | 0.00 | 0.00 | 73 | 1017.2 |
| 20260904145533 | 88 | 109 | 4.0 | 10.0 | 0.00 | 0.00 | 0.00 | 73 | 1017.0 |
| 20260904144528 | 87 | 109 | 4.0 | 6.0 | 0.00 | 0.00 | 0.00 | 74 | 1016.9 |
| 20260904143523 | 87 | 117 | 4.0 | 7.0 | 0.00 | 0.00 | 0.00 | 76 | 1016.9 |
| 20260904142518 | 86 | 150 | 9.0 | 13.0 | 0.00 | 0.00 | 0.00 | 76 | 1016.9 |
| 20260904141534 | 86 | 150 | 8.0 | 12.0 | 0.00 | 0.00 | 0.00 | 77 | 1016.8 |
| 20260904140529 | 86 | 144 | 9.0 | 12.0 | 0.00 | 0.00 | 0.00 | 77 | 1017.0 |
| 20260904135524 | 86 | 144 | 7.0 | 11.0 | 0.00 | 0.00 | 0.00 | 78 | 1016.9 |
| 20260904134520 | 85 | 148 | 9.0 | 13.0 | 0.00 | 0.00 | 0.00 | 79 | 1016.7 |
| 20260904133534 | 84 | 149 | 8.0 | 13.0 | 0.00 | 0.00 | 0.00 | 82 | 1016.7 |
| 20260904132530 | 84 | 147 | 9.0 | 12.0 | 0.00 | 0.00 | 0.00 | 83 | 1016.7 |
| 20260904131525 | 84 | 141 | 7.0 | 9.0 | 0.00 | 0.00 | 0.00 | 83 | 1016.6 |
| 20260904130519 | 83 | 146 | 7.0 | 10.0 | 0.00 | 0.00 | 0.00 | 87 | 1016.7 |
| 20260904125535 | 81 | 145 | 9.0 | 12.0 | 0.00 | 0.00 | 0.00 | 92 | 1016.7 |
| 20260904124530 | 80 | 137 | 8.0 | 10.0 | 0.00 | 0.00 | 0.00 | 95 | 1016.7 |
| 20260904123525 | 79 | 136 | 8.0 | 9.0 | 0.00 | 0.00 | 0.00 | 97 | 1016.7 |
| 20260904122520 | 78 | 135 | 7.0 | 9.0 | 0.00 | 0.00 | 0.00 | 97 | 1016.6 |
| 20260904121535 | 78 | 135 | 8.0 | 10.0 | 0.00 | 0.00 | 0.00 | 97 | 1016.7 |